Regional Weather Roundup
Issued by NWS San Angelo, TX

Home | Current Version | Previous Version | Text Only | Print | Product List | Glossary On
Versions: 1 2 3 4 5 6 7 8 9 10 11 12 13 14 15 16 17 18 19 20 21 22 23 24 25 26 27 28 29 30 31 32 33 34 35 36 37 38 39 40 41 42 43 44 45 46 47 48 49 50
000
ASUS44 KSJT 062010
RWRSJT
WEST CENTRAL TEXAS REGIONAL WEATHER ROUNDUP
NATIONAL WEATHER SERVICE SAN ANGELO TX
200 PM CST FRI MAR 06 2015

NOTE: "FAIR" INDICATES FEW OR NO CLOUDS BELOW 12,000 FEET WITH NO
SIGNIFICANT WEATHER AND/OR OBSTRUCTIONS TO VISIBILITY.

TXZ049-054-064>066-071>073-076>078-098-099-113-114-127-128-139-140-
154-155-168>170-062100
...LOCATIONS ACROSS WEST CENTRAL TEXAS...

CITY           SKY/WX    TMP DP  RH WIND       PRES   REMARKS
SAN ANGELO     SUNNY     55  24  30 CALM      30.43F
ABILENE        SUNNY     51  22  31 S9        30.45
DYESS AFB      SUNNY     51  24  33 S9        30.43F
JUNCTION       SUNNY     54  18  24 SE6       30.44F
SWEETWATER     SUNNY     51  29  43 SW6       30.45F
BROWNWOOD      SUNNY     50  18  27 SW7       30.48F
COLEMAN        CLEAR     51  28  41 SW8       30.46F
SONORA         SUNNY     54  21  28 SE8       30.47F
OZONA          FAIR      54  25  32 SW7G16    30.45F
BRADY          SUNNY     52  16  24 SE7       30.45F
$$

TEXAS PANHANDLE/OKLAHOMA PANHANDLE

CITY           SKY/WX    TMP DP  RH WIND       PRES   REMARKS
AMARILLO       SUNNY     58  25  28 W10       30.32
BORGER         SUNNY     60  25  26 MISG      30.31F
CANADIAN       SUNNY     60  32  34 SW10      30.32F
DALHART        SUNNY     59  26  28 CALM      30.31
DUMAS          CLEAR     61  29  29 W5        30.31F
GUYMON         NOT AVBL
HEREFORD       CLEAR     58  33  38 S13       30.33F
PAMPA          CLEAR     57  31  36 SW6       30.32F
PERRYTON         N/A     58  28  31 W5        30.31F
$$

SOUTHERN PANHANDLE/SOUTH PLAINS/ROLLING PLAINS

CITY           SKY/WX    TMP DP  RH WIND       PRES   REMARKS
LUBBOCK        MOSUNNY   51  29  42 SW8       30.37F
SNYDER         SUNNY     50  29  44 SW6       30.42F
CHILDRESS      SUNNY     55  27  34 SW13G22   30.38F
SEMINOLE       CLEAR     54  25  33 SW5       30.38F
$$

PERMIAN BASIN

CITY           SKY/WX    TMP DP  RH WIND       PRES   REMARKS
MIDLAND        SUNNY     51  30  44 S7        30.39F
ODESSA         SUNNY     52  29  41 S9        30.39F
WINK           SUNNY     52  30  43 SE7       30.37F
$$

FAR WEST/SOUTHWEST MOUNTAINS/TRANS PECOS

CITY           SKY/WX    TMP DP  RH WIND       PRES   REMARKS
ALPINE         CLEAR     58  33  37 E8        30.39F
DRYDEN           N/A     52  27  38 E8        30.40F
EL PASO        MOSUNNY   58  16  19 VRB3      30.31F
FORT STOCKTON  SUNNY     55  33  43 E9G17     30.37
GUADALUPE PASS NOT AVBL
MARFA          SUNNY     57  30  35 E7        30.35F
PECOS          CLEAR     47  38  69 E6        30.40F
$$

DALLAS/FORT WORTH METROPLEX

CITY           SKY/WX    TMP DP  RH WIND       PRES   REMARKS
DFW AIRPORT    SUNNY     48  21  34 VRB3      30.51F
FTW MEACHAM    SUNNY     50  25  37 S7        30.50F
DAL-EXECUTIVE  SUNNY     49  23  36 S7        30.50F
GRAND PRAIRIE  SUNNY     48  25  40 SW7       30.53F
ADDISON        NOT AVBL
MESQUITE       CLEAR     48  27  43 CALM      30.53F
LANCASTER      CLEAR     47  21  36 CALM      30.53F
$$

NORTH CENTRAL TEXAS

CITY           SKY/WX    TMP DP  RH WIND       PRES   REMARKS
SHRMAN/DENISON CLEAR     49  33  54 SW12      30.50F
GAINESVILLE    SUNNY     50  28  42 S8        30.51F
BRIDGEPORT     CLEAR     51  29  41 S6        30.50F
DENTON         SUNNY     49  26  41 SW9       30.50F
WAXAHACHIE     CLEAR     48  29  47 S7        30.52F
GRANBURY       CLEAR     52  23  33 S3        30.51F
$$

WESTERN NORTH TEXAS

CITY           SKY/WX    TMP DP  RH WIND       PRES   REMARKS
WICHITA FALLS  SUNNY     52  27  38 S15G22    30.45
VERNON         CLEAR     55  21  26 SW10G20   30.43F
BRECKENRIDGE   CLEAR     54  23  30 SW7       30.46F HAZE
COMANCHE       SUNNY     50  24  36 SW6       30.48F
$$

CENTRAL AND SOUTH CENTRAL TEXAS

CITY           SKY/WX    TMP DP  RH WIND       PRES   REMARKS
AUSTIN/BERGSTM SUNNY     52  25  35 N9        30.51F
WACO           SUNNY     50  24  36 NW5       30.52F
HILLSBORO      CLEAR     48  26  42 CALM      30.51F
TEMPLE         SUNNY     52  25  35 NW5       30.50F
KILLEEN-GRAY   SUNNY     49  21  34 VRB7      30.49F
FORT HOOD      SUNNY     49  22  33 VRB2      30.48F
GEORGETOWN     SUNNY     52  23  32 VRB5      30.51F
LAGO VISTA     FAIR      51  22  31 CALM      30.49F
SAN MARCOS     SUNNY     52  21  30 E7        30.52F
NEW BRAUNFELS  SUNNY     52  23  32 CALM      30.50F
RANDOLPH AFB   SUNNY     51  24  34 E7        30.50F
SAN ANTONIO    MOSUNNY   52  26  36 E10       30.50F
STINSON        SUNNY     52  23  32 VRB5      30.50F
PLEASANTON     NOT AVBL
LA GRANGE      SUNNY     52  23  32 N5        30.50F
GIDDINGS       CLEAR     51  22  32 CALM      30.54F
$$

EAST TEXAS

CITY           SKY/WX    TMP DP  RH WIND       PRES   REMARKS
PARIS          SUNNY     46  27  46 S3        30.53F
CLARKSVILLE    NOT AVBL
TYLER          SUNNY     50  16  25 CALM      30.51F
LONGVIEW       SUNNY     48  19  31 S5        30.51F
PALESTINE      CLEAR     51  19  29 NE6       30.52F
NACOGDOCHES    SUNNY     52  19  28 E7        30.51F
$$

TEXAS HILL COUNTRY AND EDWARDS PLATEAU

CITY           SKY/WX    TMP DP  RH WIND       PRES   REMARKS
LLANO          CLEAR     52  21  30 CALM      30.52F
HORSESHOE BAY  FAIR      53  24  31 CALM      30.49F
KERRVILLE        N/A     51  16  24 E3        30.46F
FREDERICKSBRG  SUNNY     49  16  26 S3        30.45F
ROCKSPRINGS    NOT AVBL
HONDO          SUNNY     51  20  29 SE8       30.51F
UVALDE         PTCLDY    51  18  27 SE5       30.51F
DEL RIO        SUNNY     52  21  29 E10       30.48F
$$

SOUTHEAST TEXAS

CITY           SKY/WX    TMP DP  RH WIND       PRES   REMARKS
COLLEGE STN    SUNNY     51  19  28 N8        30.51F
CALDWELL       CLEAR     52  19  28 NE3       30.54F
CROCKETT       CLEAR     54  25  32 E5        30.54F
BRENHAM        SUNNY     51  21  31 CALM      30.52F
HUNTSVILLE     SUNNY     50  21  32 VRB5      30.50F
CONROE         SUNNY     51  17  26 N5        30.51F
HOUSTON BUSH   PTSUNNY   52  18  26 VRB7      30.50F
HOUSTON HOBBY  PTSUNNY   50  19  29 NE8       30.50F
PERLAND        MOSUNNY   51  17  26 E12       30.52F
WHARTON        CLEAR     51  22  31 NE7       30.52F
$$

THE UPPER TEXAS COAST

CITY           SKY/WX    TMP DP  RH WIND       PRES   REMARKS
ORANGE         MOCLDY    51  17  26 N7        30.50F
PORT ARTHUR    PTSUNNY   53  17  24 N8        30.49F
GALVESTON      PTSUNNY   48  26  42 N12       30.52
ANGLETON       MOSUNNY   50  19  29 MISG      30.50F
BAY CITY       CLEAR     53  22  30 NE6       30.51F
$$

TEXAS COASTAL BEND, RIO GRANDE PLAINS DEEP SOUTH TEXAS

CITY           SKY/WX    TMP DP  RH WIND       PRES   REMARKS
VICTORIA       MOSUNNY   52  23  32 NE8       30.53F
BEEVILLE       CLOUDY    50  23  35 E3        30.53F
ROCKPORT       CLOUDY    49  20  31 NE7       30.54F
PORT ARANSAS   CLOUDY    47  20  35 NE9       30.54F
PORT LAVACA    MOCLDY    50  25  37 NE9       30.53F
CORPUS CHRISTI CLOUDY    48  22  35 E6        30.55F
KINGSVILLE NAS CLOUDY    49  23  36 E7        30.55F
COTULLA        CLOUDY    52  22  30 SE8       30.53F
LAREDO         PTSUNNY   48  19  31 VRB3      30.54F
BROWNSVILLE    CLOUDY    51  38  60 N13       30.52F
PORT ISABEL    CLOUDY    50  38  63 N15       30.52F
HEBBRONVILLE   CLOUDY   N/A N/A N/A CALM      30.53F
MCALLEN        CLOUDY    50  32  50 NW5       30.55F
WESLACO        PTSUNNY   51  33  50 N7        30.54F
FALFURRIAS     CLOUDY    47  22  37 NE3       30.55F
EDINBURG       CLOUDY    51  29  42 N6        30.55F
$$


USA.gov is the U.S. government's official web portal to all federal, state and local government web resources and services.